Thomson Majesty — 9HA2188 — position and weather

sailwx.info

Track history (hours):
 
Tides and Currents Weather Stations Pressure Air Temp Water Temp Dewpoint Dewpoint Depression Visibility Wind Speed Wind Dir Waves Ship Positions

Thomson Majesty

Last reported at 2017-Apr-25 12:28 UTC. Time now 2017-Apr-25 12:32 UTC.
Position N 38°43' W 009°07'.

Length 207 m; draft 6.2 m.

Type: Ship. MMSI: 248124000.

Date/timePositionNaut miles runAvg speedWind from/ knotsBaromVisibWave heightAir tempDewpointWater temp
2017-Apr-25 12:28N 38°43' W 009°07'0 0.0
2017-Apr-25 11:58N 38°43' W 009°07'0 0.0
2017-Apr-25 11:28N 38°43' W 009°07'0 0.0
2017-Apr-25 10:58N 38°43' W 009°07'0 0.0
2017-Apr-25 10:28N 38°43' W 009°07'0 0.0
2017-Apr-25 09:58N 38°43' W 009°07'0 0.0
2017-Apr-25 09:28N 38°43' W 009°07'0 0.0
2017-Apr-25 08:58N 38°43' W 009°07'0 0.0
2017-Apr-25 08:28N 38°43' W 009°07'0 0.0
2017-Apr-25 07:58N 38°43' W 009°07'0 0.0
2017-Apr-25 07:28N 38°43' W 009°07'0 0.0
2017-Apr-25 06:58N 38°43' W 009°07'1 1.5
2017-Apr-25 06:30N 38°42' W 009°08'4 7.9
2017-Apr-25 06:00N 38°41' W 009°13'611.7
2017-Apr-25 05:30N 38°39' W 009°20'613.0
2017-Apr-25 05:01N 38°33' W 009°23'815.8
2017-Apr-25 04:31N 38°25' W 009°23'815.9
2017-Apr-25 04:01N 38°18' W 009°23'816.3
2017-Apr-25 03:30N 38°09' W 009°23'816.7
2017-Apr-25 03:01N 38°01' W 009°23'816.7
2017-Apr-25 02:31N 37°53' W 009°23'816.0
2017-Apr-25 02:01N 37°45' W 009°22'611.6
2017-Apr-25 01:30N 37°39' W 009°22'611.9
2017-Apr-25 01:00N 37°33' W 009°22'611.9
2017-Apr-25 00:30N 37°27' W 009°22'611.9
2017-Apr-25 00:00N 37°21' W 009°22'612.1
2017-Apr-24 23:31N 37°15' W 009°22'611.2
2017-Apr-24 23:00N 37°09' W 009°22'510.9
2017-Apr-24 22:30N 37°04' W 009°22'713.8
2017-Apr-24 22:00N 36°57' W 009°20'815.1
2017-Apr-24 21:30N 36°50' W 009°16'815.4
2017-Apr-24 20:58N 36°45' W 009°08'715.6
2017-Apr-24 20:30N 36°43' W 008°59'816.5
2017-Apr-24 20:00N 36°49' W 008°52'816.3
2017-Apr-24 19:30N 36°55' W 008°45'815.7
2017-Apr-24 19:00N 37°00' W 008°38'714.6
2017-Apr-24 18:30N 37°06' W 008°32'2 3.7
2017-Apr-24 18:00N 37°08' W 008°32'0 0.0
2017-Apr-24 17:29N 37°08' W 008°32'0 0.0
2017-Apr-24 16:59N 37°08' W 008°32'0 0.0
2017-Apr-24 16:29N 37°08' W 008°32'0 0.0
2017-Apr-24 15:56N 37°08' W 008°32'0 0.0
2017-Apr-24 15:29N 37°08' W 008°32'0 0.0
2017-Apr-24 14:59N 37°08' W 008°32'0 0.0
2017-Apr-24 14:29N 37°08' W 008°32'0 0.0
2017-Apr-24 13:29N 37°08' W 008°32'0 0.0
2017-Apr-24 12:59N 37°08' W 008°32'0 0.0
2017-Apr-24 12:17N 37°08' W 008°32'0 0.0
2017-Apr-24 11:59N 37°08' W 008°32'0 0.0
2017-Apr-24 11:26N 37°08' W 008°32'0 0.0
2017-Apr-24 10:59N 37°08' W 008°32'0 0.0
2017-Apr-24 10:30N 37°08' W 008°32'4 7.5
2017-Apr-24 10:00N 37°04' W 008°33'816.6
2017-Apr-24 09:30N 36°57' W 008°38'918.0
2017-Apr-24 09:00N 36°49' W 008°44'917.9
2017-Apr-24 08:30N 36°42' W 008°50'1117.9
2017-Apr-24 07:54N 36°33' W 008°57'717.8
2017-Apr-24 07:30N 36°27' W 009°02'917.8
2017-Apr-24 07:00N 36°19' W 009°08'917.8
2017-Apr-24 06:29N 36°12' W 009°14'2917.7
2017-Apr-24 04:52N 35°47' W 009°34'717.8
2017-Apr-24 04:30N 35°42' W 009°38'917.6
2017-Apr-24 03:58N 35°34' W 009°44'917.5
2017-Apr-24 03:28N 35°27' W 009°50'47417.5
2017-Apr-23 00:21N 28°49' W 014°56'617.4
2017-Apr-23 00:00N 28°44' W 014°59'917.5
2017-Apr-22 23:30N 28°37' W 015°05'917.4
2017-Apr-22 23:00N 28°30' W 015°10'917.5
2017-Apr-22 22:30N 28°22' W 015°15'917.7
2017-Apr-22 22:00N 28°14' W 015°19'816.5
2017-Apr-22 21:31N 28°07' W 015°24'2 3.3
2017-Apr-22 20:58N 28°08' W 015°25'0 0.0
2017-Apr-22 20:28N 28°08' W 015°25'0 0.0
2017-Apr-22 19:59N 28°08' W 015°25'0 0.0
2017-Apr-22 19:20N 28°08' W 015°25'0 0.0
2017-Apr-22 18:52N 28°08' W 015°25'0 0.0
2017-Apr-22 18:20N 28°08' W 015°25'0 0.0
2017-Apr-22 17:52N 28°08' W 015°25'0 0.0
2017-Apr-22 17:22N 28°08' W 015°25'0 0.0
2017-Apr-22 16:53N 28°08' W 015°25'0 0.0
2017-Apr-22 16:23N 28°08' W 015°25'0 0.0
2017-Apr-22 15:52N 28°08' W 015°25'0 0.0
2017-Apr-22 15:26N 28°08' W 015°25'0 0.0
2017-Apr-22 14:56N 28°08' W 015°25'0 0.0
2017-Apr-22 14:26N 28°08' W 015°25'0 0.0
2017-Apr-22 13:26N 28°08' W 015°25'0 0.0
2017-Apr-22 12:59N 28°08' W 015°25'0 0.0
2017-Apr-22 12:26N 28°08' W 015°25'0 0.0
2017-Apr-22 11:59N 28°08' W 015°25'0 0.0
2017-Apr-22 11:29N 28°08' W 015°25'0 0.0
2017-Apr-22 10:59N 28°08' W 015°25'0 0.0
2017-Apr-22 10:29N 28°08' W 015°25'0 0.0
2017-Apr-22 09:58N 28°08' W 015°25'0 0.0
2017-Apr-22 09:29N 28°08' W 015°25'0 0.0
2017-Apr-22 08:58N 28°08' W 015°25'0 0.0
2017-Apr-22 08:28N 28°08' W 015°25'0 0.0
2017-Apr-22 07:58N 28°08' W 015°25'0 0.0
2017-Apr-22 07:28N 28°08' W 015°25'0 0.0
2017-Apr-22 07:00N 28°08' W 015°25'0 0.1
2017-Apr-22 06:30N 28°08' W 015°25'1 2.7
2017-Apr-22 06:00N 28°07' W 015°25'611.3
2017-Apr-22 05:30N 28°12' W 015°21'714.9
2017-Apr-22 05:01N 28°19' W 015°18'510.6
2017-Apr-22 04:31N 28°23' W 015°21'611.7
2017-Apr-22 04:01N 28°27' W 015°26'611.7
2017-Apr-22 03:30N 28°30' W 015°32'611.5
2017-Apr-22 03:01N 28°33' W 015°37'510.1
2017-Apr-22 02:31N 28°32' W 015°43'611.2
2017-Apr-22 02:01N 28°28' W 015°47'611.3
2017-Apr-22 01:30N 28°24' W 015°51'611.1
2017-Apr-22 01:00N 28°20' W 015°55'5 9.9
2017-Apr-22 00:30N 28°19' W 016°01'612.2
2017-Apr-22 00:00N 28°23' W 016°06'612.1
2017-Apr-21 23:29N 28°27' W 016°11'3 6.6
2017-Apr-21 23:00N 28°28' W 016°15'0 0.2
2017-Apr-21 22:21N 28°28' W 016°15'0 0.0
2017-Apr-21 21:54N 28°28' W 016°15'0 0.0
2017-Apr-21 21:24N 28°28' W 016°15'0 0.0
2017-Apr-21 20:54N 28°28' W 016°15'0 0.0
2017-Apr-21 20:24N 28°28' W 016°15'0 0.0
2017-Apr-21 19:54N 28°28' W 016°15'0 0.0
2017-Apr-21 19:24N 28°28' W 016°15'0 0.0
2017-Apr-21 18:57N 28°28' W 016°15'0 0.0
2017-Apr-21 18:27N 28°28' W 016°15'0 0.0
2017-Apr-21 17:57N 28°28' W 016°15'0 0.0
2017-Apr-21 17:30N 28°28' W 016°15'0 0.0
2017-Apr-21 16:54N 28°28' W 016°15'0 0.0
2017-Apr-21 16:30N 28°28' W 016°15'0 0.0
2017-Apr-21 16:00N 28°28' W 016°15'0 0.0
2017-Apr-21 15:30N 28°28' W 016°15'0 0.0
2017-Apr-21 15:00N 28°28' W 016°15'0 0.0
2017-Apr-21 14:30N 28°28' W 016°15'0 0.0
2017-Apr-21 13:30N 28°28' W 016°15'0 0.0
2017-Apr-21 13:00N 28°28' W 016°15'0 0.0
2017-Apr-21 12:30N 28°28' W 016°15'0 0.0
2017-Apr-21 12:00N 28°28' W 016°15'0 0.0
2017-Apr-21 11:30N 28°28' W 016°15'0 0.0
2017-Apr-21 11:00N 28°28' W 016°15'0 0.0
2017-Apr-21 10:30N 28°28' W 016°15'0 0.0
2017-Apr-21 10:00N 28°28' W 016°15'0 0.0
2017-Apr-21 09:30N 28°28' W 016°15'0 0.0
2017-Apr-21 08:33N 28°28' W 016°15'0 0.0
2017-Apr-21 08:21N 28°28' W 016°15'0 0.0
2017-Apr-21 07:51N 28°28' W 016°15'0 0.0
2017-Apr-21 07:21N 28°28' W 016°15'0 0.0
2017-Apr-21 06:54N 28°28' W 016°15'0 0.0
2017-Apr-21 06:24N 28°28' W 016°15'0 0.0
2017-Apr-21 05:57N 28°28' W 016°15'0 0.0
2017-Apr-21 05:24N 28°28' W 016°15'0 0.0
2017-Apr-21 04:54N 28°28' W 016°15'0 0.0
2017-Apr-21 04:30N 28°28' W 016°15'2 3.4
2017-Apr-21 03:59N 28°28' W 016°13'714.7
2017-Apr-21 03:30N 28°24' W 016°06'510.5
2017-Apr-21 03:00N 28°20' W 016°01'5 9.0
2017-Apr-21 02:30N 28°17' W 015°58'5 9.4
2017-Apr-21 02:00N 28°13' W 016°01'7 9.5
2017-Apr-21 01:17N 28°08' W 016°06'6 9.5
2017-Apr-21 00:41N 28°03' W 016°10'3 9.5
2017-Apr-21 00:24N 28°01' W 016°12'15 9.6
2017-Apr-20 22:48N 27°50' W 016°25'2 4.8
2017-Apr-20 22:24N 27°50' W 016°23'  
2017-Apr-18 05:15N 29°54' W 017°27'1016.0
2017-Apr-18 04:39N 30°04' W 017°26'216.1
2017-Apr-18 04:30N 30°06' W 017°25'916.3
2017-Apr-18 03:57N 30°15' W 017°23'716.3
2017-Apr-18 03:30N 30°22' W 017°22'816.2
2017-Apr-18 03:00N 30°30' W 017°20'816.1
2017-Apr-18 02:29N 30°39' W 017°19'816.4
2017-Apr-18 02:00N 30°46' W 017°17'816.5
2017-Apr-18 01:30N 30°54' W 017°15'816.5
2017-Apr-18 01:00N 31°02' W 017°14'816.5
2017-Apr-18 00:30N 31°11' W 017°12'816.8
2017-Apr-18 00:00N 31°19' W 017°10'715.0
2017-Apr-17 23:30N 31°26' W 017°09'612.1
2017-Apr-17 23:00N 31°32' W 017°08'611.9
2017-Apr-17 22:30N 31°38' W 017°06'611.7
2017-Apr-17 22:00N 31°44' W 017°05'711.6
2017-Apr-17 21:23N 31°51' W 017°04'711.5
2017-Apr-17 20:44N 31°58' W 017°02'311.3
2017-Apr-17 20:30N 32°01' W 017°02'1111.3
2017-Apr-17 19:30N 32°12' W 016°59'711.2
2017-Apr-17 18:54N 32°19' W 016°58'611.4
2017-Apr-17 18:22N 32°25' W 016°57'511.4
2017-Apr-17 17:54N 32°30' W 016°56'611.5
2017-Apr-17 17:21N 32°36' W 016°54'2 7.2
2017-Apr-17 17:00N 32°39' W 016°54'0 0.1
2017-Apr-17 12:52N 32°39' W 016°55'0 0.0
2017-Apr-17 12:22N 32°39' W 016°55'0 0.0
2017-Apr-17 11:55N 32°39' W 016°55'0 0.0
2017-Apr-17 11:25N 32°39' W 016°55'0 0.0
2017-Apr-17 10:52N 32°39' W 016°55'0 0.0
2017-Apr-17 10:10N 32°39' W 016°55'0 0.0
2017-Apr-17 09:55N 32°39' W 016°55'0 0.0
2017-Apr-17 06:28N 32°39' W 016°55'8 7.8
2017-Apr-17 05:24N 32°31' W 016°52'615.6
2017-Apr-17 05:00N 32°25' W 016°50'816.3
2017-Apr-17 04:30N 32°17' W 016°48'611.9
2017-Apr-17 03:58N 32°11' W 016°46'612.0
2017-Apr-17 03:30N 32°05' W 016°44'2712.0
2017-Apr-17 01:16N 31°39' W 016°37'412.2
2017-Apr-17 00:59N 31°36' W 016°36'912.1
2017-Apr-17 00:13N 31°27' W 016°33'412.0
2017-Apr-16 23:52N 31°23' W 016°32'1111.9
2017-Apr-16 22:54N 31°11' W 016°29'511.5
2017-Apr-16 22:30N 31°07' W 016°27'611.5
2017-Apr-16 22:00N 31°01' W 016°26'611.5
2017-Apr-16 21:30N 30°56' W 016°24'611.5
2017-Apr-16 20:56N 30°50' W 016°22'511.7
2017-Apr-16 20:30N 30°45' W 016°21'611.5
2017-Apr-16 20:00N 30°39' W 016°19'611.5
2017-Apr-16 19:30N 30°33' W 016°17'611.6
2017-Apr-16 19:00N 30°28' W 016°16'611.7
2017-Apr-16 18:30N 30°22' W 016°14'611.8
2017-Apr-16 18:00N 30°17' W 016°13'611.6
2017-Apr-16 17:30N 30°11' W 016°11'611.8
2017-Apr-16 17:00N 30°05' W 016°09'611.8
2017-Apr-16 16:30N 29°60' W 016°07'612.0
2017-Apr-16 16:00N 29°54' W 016°05'611.9
2017-Apr-16 15:30N 29°49' W 016°02'612.1
2017-Apr-16 15:00N 29°43' W 015°59'612.1
2017-Apr-16 14:30N 29°38' W 015°56'1212.1
2017-Apr-16 13:30N 29°26' W 015°51'612.0
2017-Apr-16 13:00N 29°21' W 015°48'612.1
2017-Apr-16 12:30N 29°15' W 015°45'612.1
2017-Apr-16 12:00N 29°10' W 015°43'612.1
2017-Apr-16 11:30N 29°04' W 015°40'612.2
2017-Apr-16 11:00N 28°59' W 015°37'612.1
2017-Apr-16 10:30N 28°53' W 015°34'612.1
2017-Apr-16 10:00N 28°48' W 015°31'612.1
2017-Apr-16 09:30N 28°42' W 015°29'612.5
2017-Apr-16 09:00N 28°36' W 015°26'612.5
2017-Apr-16 08:30N 28°31' W 015°23'612.5
2017-Apr-16 08:00N 28°25' W 015°20'611.8
2017-Apr-16 07:30N 28°19' W 015°19'611.8
2017-Apr-16 07:00N 28°13' W 015°21'611.6
2017-Apr-16 06:30N 28°08' W 015°23'2 4.3
2017-Apr-16 05:56N 28°08' W 015°25'0 0.0
2017-Apr-16 05:26N 28°08' W 015°25'0 0.0
2017-Apr-16 04:56N 28°08' W 015°25'0 0.0
2017-Apr-16 04:26N 28°08' W 015°25'0 0.0
2017-Apr-16 03:56N 28°08' W 015°25'0 0.0
2017-Apr-16 03:29N 28°08' W 015°25'0 0.0
2017-Apr-16 02:59N 28°08' W 015°25'0 0.0
2017-Apr-16 02:29N 28°08' W 015°25'0 0.0
2017-Apr-16 01:59N 28°08' W 015°25'0 0.0
2017-Apr-16 01:29N 28°08' W 015°25'0 0.0
2017-Apr-16 00:59N 28°08' W 015°25'0 0.0
2017-Apr-16 00:29N 28°08' W 015°25'0 0.0
2017-Apr-15 23:59N 28°08' W 015°25'0 0.0
2017-Apr-15 23:29N 28°08' W 015°25'0 0.0
2017-Apr-15 22:59N 28°08' W 015°25'0 0.0
2017-Apr-15 22:29N 28°08' W 015°25'0 0.0
2017-Apr-15 21:59N 28°08' W 015°25'0 0.0
2017-Apr-15 21:29N 28°08' W 015°25'0 0.0
2017-Apr-15 20:50N 28°08' W 015°25'0 0.0
2017-Apr-15 20:20N 28°08' W 015°25'0 0.0
2017-Apr-15 19:53N 28°08' W 015°25'0 0.0
2017-Apr-15 19:23N 28°08' W 015°25'0 0.0
2017-Apr-15 18:53N 28°08' W 015°25'0 0.0
2017-Apr-15 18:23N 28°08' W 015°25'0 0.0
2017-Apr-15 17:53N 28°08' W 015°25'0 0.0
2017-Apr-15 17:23N 28°08' W 015°25'0 0.0
2017-Apr-15 16:56N 28°08' W 015°25'0 0.0
2017-Apr-15 16:26N 28°08' W 015°25'0 0.0
2017-Apr-15 15:53N 28°08' W 015°25'0 0.0
2017-Apr-15 15:26N 28°08' W 015°25'0 0.0
2017-Apr-15 14:56N 28°08' W 015°25'0 0.0
2017-Apr-15 14:29N 28°08' W 015°25'0 0.0
2017-Apr-15 13:29N 28°08' W 015°25'0 0.0
2017-Apr-15 12:56N 28°08' W 015°25'0 0.0
2017-Apr-15 12:29N 28°08' W 015°25'  
Track history (hours):
 
Tides and Currents Weather Stations Pressure Air Temp Water Temp Dewpoint Dewpoint Depression Visibility Wind Speed Wind Dir Waves Ship Positions

Thomson Majesty

Last reported at 2017-Apr-25 12:28 UTC. Time now 2017-Apr-25 12:32 UTC.
Position N 38°43' W 009°07'.

Length 207 m; draft 6.2 m.

Type: Ship. MMSI: 248124000.

Date/timePositionNaut miles runAvg speedWind from/ knotsBaromVisibWave heightAir tempDewpointWater temp
2017-Apr-25 12:28N 38°43' W 009°07'0 0.0
2017-Apr-25 11:58N 38°43' W 009°07'0 0.0
2017-Apr-25 11:28N 38°43' W 009°07'0 0.0
2017-Apr-25 10:58N 38°43' W 009°07'0 0.0
2017-Apr-25 10:28N 38°43' W 009°07'0 0.0
2017-Apr-25 09:58N 38°43' W 009°07'0 0.0
2017-Apr-25 09:28N 38°43' W 009°07'0 0.0
2017-Apr-25 08:58N 38°43' W 009°07'0 0.0
2017-Apr-25 08:28N 38°43' W 009°07'0 0.0
2017-Apr-25 07:58N 38°43' W 009°07'0 0.0
2017-Apr-25 07:28N 38°43' W 009°07'0 0.0
2017-Apr-25 06:58N 38°43' W 009°07'1 1.5
2017-Apr-25 06:30N 38°42' W 009°08'4 7.9
2017-Apr-25 06:00N 38°41' W 009°13'611.7
2017-Apr-25 05:30N 38°39' W 009°20'613.0
2017-Apr-25 05:01N 38°33' W 009°23'815.8
2017-Apr-25 04:31N 38°25' W 009°23'815.9
2017-Apr-25 04:01N 38°18' W 009°23'816.3
2017-Apr-25 03:30N 38°09' W 009°23'816.7
2017-Apr-25 03:01N 38°01' W 009°23'816.7
2017-Apr-25 02:31N 37°53' W 009°23'816.0
2017-Apr-25 02:01N 37°45' W 009°22'611.6
2017-Apr-25 01:30N 37°39' W 009°22'611.9
2017-Apr-25 01:00N 37°33' W 009°22'611.9
2017-Apr-25 00:30N 37°27' W 009°22'611.9
2017-Apr-25 00:00N 37°21' W 009°22'612.1
2017-Apr-24 23:31N 37°15' W 009°22'611.2
2017-Apr-24 23:00N 37°09' W 009°22'510.9
2017-Apr-24 22:30N 37°04' W 009°22'713.8
2017-Apr-24 22:00N 36°57' W 009°20'815.1
2017-Apr-24 21:30N 36°50' W 009°16'815.4
2017-Apr-24 20:58N 36°45' W 009°08'715.6
2017-Apr-24 20:30N 36°43' W 008°59'816.5
2017-Apr-24 20:00N 36°49' W 008°52'816.3
2017-Apr-24 19:30N 36°55' W 008°45'815.7
2017-Apr-24 19:00N 37°00' W 008°38'714.6
2017-Apr-24 18:30N 37°06' W 008°32'2 3.7
2017-Apr-24 18:00N 37°08' W 008°32'0 0.0
2017-Apr-24 17:29N 37°08' W 008°32'0 0.0
2017-Apr-24 16:59N 37°08' W 008°32'0 0.0
2017-Apr-24 16:29N 37°08' W 008°32'0 0.0
2017-Apr-24 15:56N 37°08' W 008°32'0 0.0
2017-Apr-24 15:29N 37°08' W 008°32'0 0.0
2017-Apr-24 14:59N 37°08' W 008°32'0 0.0
2017-Apr-24 14:29N 37°08' W 008°32'0 0.0
2017-Apr-24 13:29N 37°08' W 008°32'0 0.0
2017-Apr-24 12:59N 37°08' W 008°32'0 0.0
2017-Apr-24 12:17N 37°08' W 008°32'0 0.0
2017-Apr-24 11:59N 37°08' W 008°32'0 0.0
2017-Apr-24 11:26N 37°08' W 008°32'0 0.0
2017-Apr-24 10:59N 37°08' W 008°32'0 0.0
2017-Apr-24 10:30N 37°08' W 008°32'4 7.5
2017-Apr-24 10:00N 37°04' W 008°33'816.6
2017-Apr-24 09:30N 36°57' W 008°38'918.0
2017-Apr-24 09:00N 36°49' W 008°44'917.9
2017-Apr-24 08:30N 36°42' W 008°50'1117.9
2017-Apr-24 07:54N 36°33' W 008°57'717.8
2017-Apr-24 07:30N 36°27' W 009°02'917.8
2017-Apr-24 07:00N 36°19' W 009°08'917.8
2017-Apr-24 06:29N 36°12' W 009°14'2917.7
2017-Apr-24 04:52N 35°47' W 009°34'717.8
2017-Apr-24 04:30N 35°42' W 009°38'917.6
2017-Apr-24 03:58N 35°34' W 009°44'917.5
2017-Apr-24 03:28N 35°27' W 009°50'47417.5
2017-Apr-23 00:21N 28°49' W 014°56'617.4
2017-Apr-23 00:00N 28°44' W 014°59'917.5
2017-Apr-22 23:30N 28°37' W 015°05'917.4
2017-Apr-22 23:00N 28°30' W 015°10'917.5
2017-Apr-22 22:30N 28°22' W 015°15'917.7
2017-Apr-22 22:00N 28°14' W 015°19'816.5
2017-Apr-22 21:31N 28°07' W 015°24'2 3.3
2017-Apr-22 20:58N 28°08' W 015°25'0 0.0
2017-Apr-22 20:28N 28°08' W 015°25'0 0.0
2017-Apr-22 19:59N 28°08' W 015°25'0 0.0
2017-Apr-22 19:20N 28°08' W 015°25'0 0.0
2017-Apr-22 18:52N 28°08' W 015°25'0 0.0
2017-Apr-22 18:20N 28°08' W 015°25'0 0.0
2017-Apr-22 17:52N 28°08' W 015°25'0 0.0
2017-Apr-22 17:22N 28°08' W 015°25'0 0.0
2017-Apr-22 16:53N 28°08' W 015°25'0 0.0
2017-Apr-22 16:23N 28°08' W 015°25'0 0.0
2017-Apr-22 15:52N 28°08' W 015°25'0 0.0
2017-Apr-22 15:26N 28°08' W 015°25'0 0.0
2017-Apr-22 14:56N 28°08' W 015°25'0 0.0
2017-Apr-22 14:26N 28°08' W 015°25'0 0.0
2017-Apr-22 13:26N 28°08' W 015°25'0 0.0
2017-Apr-22 12:59N 28°08' W 015°25'0 0.0
2017-Apr-22 12:26N 28°08' W 015°25'0 0.0
2017-Apr-22 11:59N 28°08' W 015°25'0 0.0
2017-Apr-22 11:29N 28°08' W 015°25'0 0.0
2017-Apr-22 10:59N 28°08' W 015°25'0 0.0
2017-Apr-22 10:29N 28°08' W 015°25'0 0.0
2017-Apr-22 09:58N 28°08' W 015°25'0 0.0
2017-Apr-22 09:29N 28°08' W 015°25'0 0.0
2017-Apr-22 08:58N 28°08' W 015°25'0 0.0
2017-Apr-22 08:28N 28°08' W 015°25'0 0.0
2017-Apr-22 07:58N 28°08' W 015°25'0 0.0
2017-Apr-22 07:28N 28°08' W 015°25'0 0.0
2017-Apr-22 07:00N 28°08' W 015°25'0 0.1
2017-Apr-22 06:30N 28°08' W 015°25'1 2.7
2017-Apr-22 06:00N 28°07' W 015°25'611.3
2017-Apr-22 05:30N 28°12' W 015°21'714.9
2017-Apr-22 05:01N 28°19' W 015°18'510.6
2017-Apr-22 04:31N 28°23' W 015°21'611.7
2017-Apr-22 04:01N 28°27' W 015°26'611.7
2017-Apr-22 03:30N 28°30' W 015°32'611.5
2017-Apr-22 03:01N 28°33' W 015°37'510.1
2017-Apr-22 02:31N 28°32' W 015°43'611.2
2017-Apr-22 02:01N 28°28' W 015°47'611.3
2017-Apr-22 01:30N 28°24' W 015°51'611.1
2017-Apr-22 01:00N 28°20' W 015°55'5 9.9
2017-Apr-22 00:30N 28°19' W 016°01'612.2
2017-Apr-22 00:00N 28°23' W 016°06'612.1
2017-Apr-21 23:29N 28°27' W 016°11'3 6.6
2017-Apr-21 23:00N 28°28' W 016°15'0 0.2
2017-Apr-21 22:21N 28°28' W 016°15'0 0.0
2017-Apr-21 21:54N 28°28' W 016°15'0 0.0
2017-Apr-21 21:24N 28°28' W 016°15'0 0.0
2017-Apr-21 20:54N 28°28' W 016°15'0 0.0
2017-Apr-21 20:24N 28°28' W 016°15'0 0.0
2017-Apr-21 19:54N 28°28' W 016°15'0 0.0
2017-Apr-21 19:24N 28°28' W 016°15'0 0.0
2017-Apr-21 18:57N 28°28' W 016°15'0 0.0
2017-Apr-21 18:27N 28°28' W 016°15'0 0.0
2017-Apr-21 17:57N 28°28' W 016°15'0 0.0
2017-Apr-21 17:30N 28°28' W 016°15'0 0.0
2017-Apr-21 16:54N 28°28' W 016°15'0 0.0
2017-Apr-21 16:30N 28°28' W 016°15'0 0.0
2017-Apr-21 16:00N 28°28' W 016°15'0 0.0
2017-Apr-21 15:30N 28°28' W 016°15'0 0.0
2017-Apr-21 15:00N 28°28' W 016°15'0 0.0
2017-Apr-21 14:30N 28°28' W 016°15'0 0.0
2017-Apr-21 13:30N 28°28' W 016°15'0 0.0
2017-Apr-21 13:00N 28°28' W 016°15'0 0.0
2017-Apr-21 12:30N 28°28' W 016°15'0 0.0
2017-Apr-21 12:00N 28°28' W 016°15'0 0.0
2017-Apr-21 11:30N 28°28' W 016°15'0 0.0
2017-Apr-21 11:00N 28°28' W 016°15'0 0.0
2017-Apr-21 10:30N 28°28' W 016°15'0 0.0
2017-Apr-21 10:00N 28°28' W 016°15'0 0.0
2017-Apr-21 09:30N 28°28' W 016°15'0 0.0
2017-Apr-21 08:33N 28°28' W 016°15'0 0.0
2017-Apr-21 08:21N 28°28' W 016°15'0 0.0
2017-Apr-21 07:51N 28°28' W 016°15'0 0.0
2017-Apr-21 07:21N 28°28' W 016°15'0 0.0
2017-Apr-21 06:54N 28°28' W 016°15'0 0.0
2017-Apr-21 06:24N 28°28' W 016°15'0 0.0
2017-Apr-21 05:57N 28°28' W 016°15'0 0.0
2017-Apr-21 05:24N 28°28' W 016°15'0 0.0
2017-Apr-21 04:54N 28°28' W 016°15'0 0.0
2017-Apr-21 04:30N 28°28' W 016°15'2 3.4
2017-Apr-21 03:59N 28°28' W 016°13'714.7
2017-Apr-21 03:30N 28°24' W 016°06'510.5
2017-Apr-21 03:00N 28°20' W 016°01'5 9.0
2017-Apr-21 02:30N 28°17' W 015°58'5 9.4
2017-Apr-21 02:00N 28°13' W 016°01'7 9.5
2017-Apr-21 01:17N 28°08' W 016°06'6 9.5
2017-Apr-21 00:41N 28°03' W 016°10'3 9.5
2017-Apr-21 00:24N 28°01' W 016°12'15 9.6
2017-Apr-20 22:48N 27°50' W 016°25'2 4.8
2017-Apr-20 22:24N 27°50' W 016°23'  
2017-Apr-18 05:15N 29°54' W 017°27'1016.0
2017-Apr-18 04:39N 30°04' W 017°26'216.1
2017-Apr-18 04:30N 30°06' W 017°25'916.3
2017-Apr-18 03:57N 30°15' W 017°23'716.3
2017-Apr-18 03:30N 30°22' W 017°22'816.2
2017-Apr-18 03:00N 30°30' W 017°20'816.1
2017-Apr-18 02:29N 30°39' W 017°19'816.4
2017-Apr-18 02:00N 30°46' W 017°17'816.5
2017-Apr-18 01:30N 30°54' W 017°15'816.5
2017-Apr-18 01:00N 31°02' W 017°14'816.5
2017-Apr-18 00:30N 31°11' W 017°12'816.8
2017-Apr-18 00:00N 31°19' W 017°10'715.0
2017-Apr-17 23:30N 31°26' W 017°09'612.1
2017-Apr-17 23:00N 31°32' W 017°08'611.9
2017-Apr-17 22:30N 31°38' W 017°06'611.7
2017-Apr-17 22:00N 31°44' W 017°05'711.6
2017-Apr-17 21:23N 31°51' W 017°04'711.5
2017-Apr-17 20:44N 31°58' W 017°02'311.3
2017-Apr-17 20:30N 32°01' W 017°02'1111.3
2017-Apr-17 19:30N 32°12' W 016°59'711.2
2017-Apr-17 18:54N 32°19' W 016°58'611.4
2017-Apr-17 18:22N 32°25' W 016°57'511.4
2017-Apr-17 17:54N 32°30' W 016°56'611.5
2017-Apr-17 17:21N 32°36' W 016°54'2 7.2
2017-Apr-17 17:00N 32°39' W 016°54'0 0.1
2017-Apr-17 12:52N 32°39' W 016°55'0 0.0
2017-Apr-17 12:22N 32°39' W 016°55'0 0.0
2017-Apr-17 11:55N 32°39' W 016°55'0 0.0
2017-Apr-17 11:25N 32°39' W 016°55'0 0.0
2017-Apr-17 10:52N 32°39' W 016°55'0 0.0
2017-Apr-17 10:10N 32°39' W 016°55'0 0.0
2017-Apr-17 09:55N 32°39' W 016°55'0 0.0
2017-Apr-17 06:28N 32°39' W 016°55'8 7.8
2017-Apr-17 05:24N 32°31' W 016°52'615.6
2017-Apr-17 05:00N 32°25' W 016°50'816.3
2017-Apr-17 04:30N 32°17' W 016°48'611.9
2017-Apr-17 03:58N 32°11' W 016°46'612.0
2017-Apr-17 03:30N 32°05' W 016°44'2712.0
2017-Apr-17 01:16N 31°39' W 016°37'412.2
2017-Apr-17 00:59N 31°36' W 016°36'912.1
2017-Apr-17 00:13N 31°27' W 016°33'412.0
2017-Apr-16 23:52N 31°23' W 016°32'1111.9
2017-Apr-16 22:54N 31°11' W 016°29'511.5
2017-Apr-16 22:30N 31°07' W 016°27'611.5
2017-Apr-16 22:00N 31°01' W 016°26'611.5
2017-Apr-16 21:30N 30°56' W 016°24'611.5
2017-Apr-16 20:56N 30°50' W 016°22'511.7
2017-Apr-16 20:30N 30°45' W 016°21'611.5
2017-Apr-16 20:00N 30°39' W 016°19'611.5
2017-Apr-16 19:30N 30°33' W 016°17'611.6
2017-Apr-16 19:00N 30°28' W 016°16'611.7
2017-Apr-16 18:30N 30°22' W 016°14'611.8
2017-Apr-16 18:00N 30°17' W 016°13'611.6
2017-Apr-16 17:30N 30°11' W 016°11'611.8
2017-Apr-16 17:00N 30°05' W 016°09'611.8
2017-Apr-16 16:30N 29°60' W 016°07'612.0
2017-Apr-16 16:00N 29°54' W 016°05'611.9
2017-Apr-16 15:30N 29°49' W 016°02'612.1
2017-Apr-16 15:00N 29°43' W 015°59'612.1
2017-Apr-16 14:30N 29°38' W 015°56'1212.1
2017-Apr-16 13:30N 29°26' W 015°51'612.0
2017-Apr-16 13:00N 29°21' W 015°48'612.1
2017-Apr-16 12:30N 29°15' W 015°45'612.1
2017-Apr-16 12:00N 29°10' W 015°43'612.1
2017-Apr-16 11:30N 29°04' W 015°40'612.2
2017-Apr-16 11:00N 28°59' W 015°37'612.1
2017-Apr-16 10:30N 28°53' W 015°34'612.1
2017-Apr-16 10:00N 28°48' W 015°31'612.1
2017-Apr-16 09:30N 28°42' W 015°29'612.5
2017-Apr-16 09:00N 28°36' W 015°26'612.5
2017-Apr-16 08:30N 28°31' W 015°23'612.5
2017-Apr-16 08:00N 28°25' W 015°20'611.8
2017-Apr-16 07:30N 28°19' W 015°19'611.8
2017-Apr-16 07:00N 28°13' W 015°21'611.6
2017-Apr-16 06:30N 28°08' W 015°23'2 4.3
2017-Apr-16 05:56N 28°08' W 015°25'0 0.0
2017-Apr-16 05:26N 28°08' W 015°25'0 0.0
2017-Apr-16 04:56N 28°08' W 015°25'0 0.0
2017-Apr-16 04:26N 28°08' W 015°25'0 0.0
2017-Apr-16 03:56N 28°08' W 015°25'0 0.0
2017-Apr-16 03:29N 28°08' W 015°25'0 0.0
2017-Apr-16 02:59N 28°08' W 015°25'0 0.0
2017-Apr-16 02:29N 28°08' W 015°25'0 0.0
2017-Apr-16 01:59N 28°08' W 015°25'0 0.0
2017-Apr-16 01:29N 28°08' W 015°25'0 0.0
2017-Apr-16 00:59N 28°08' W 015°25'0 0.0
2017-Apr-16 00:29N 28°08' W 015°25'0 0.0
2017-Apr-15 23:59N 28°08' W 015°25'0 0.0
2017-Apr-15 23:29N 28°08' W 015°25'0 0.0
2017-Apr-15 22:59N 28°08' W 015°25'0 0.0
2017-Apr-15 22:29N 28°08' W 015°25'0 0.0
2017-Apr-15 21:59N 28°08' W 015°25'0 0.0
2017-Apr-15 21:29N 28°08' W 015°25'0 0.0
2017-Apr-15 20:50N 28°08' W 015°25'0 0.0
2017-Apr-15 20:20N 28°08' W 015°25'0 0.0
2017-Apr-15 19:53N 28°08' W 015°25'0 0.0
2017-Apr-15 19:23N 28°08' W 015°25'0 0.0
2017-Apr-15 18:53N 28°08' W 015°25'0 0.0
2017-Apr-15 18:23N 28°08' W 015°25'0 0.0
2017-Apr-15 17:53N 28°08' W 015°25'0 0.0
2017-Apr-15 17:23N 28°08' W 015°25'0 0.0
2017-Apr-15 16:56N 28°08' W 015°25'0 0.0
2017-Apr-15 16:26N 28°08' W 015°25'0 0.0
2017-Apr-15 15:53N 28°08' W 015°25'0 0.0
2017-Apr-15 15:26N 28°08' W 015°25'0 0.0
2017-Apr-15 14:56N 28°08' W 015°25'0 0.0
2017-Apr-15 14:29N 28°08' W 015°25'0 0.0
2017-Apr-15 13:29N 28°08' W 015°25'0 0.0
2017-Apr-15 12:56N 28°08' W 015°25'0 0.0
2017-Apr-15 12:29N 28°08' W 015°25'  

Dump ship's entire track history